FLOCK 2K-16 (42889 NORAD) Tracking and Keplerian Element Data

This shows tracking and keplerian element data for the satellite.

Feedback or suggestion? Click here.




ElementValue
Catalog42889
NameFLOCK 2K-16
Epoch Orbit3282
Epoch Day45.61572958
Epoch Year2018
RAAN308.471
Inclination96.9928
Eccentricity0.0012218
Argument of Perigee174.5561
Mean Anonmoly185.5819
Mean Motion15.35549474
Decay Rate2.465E-05
L11 42889U 17042BS 18045.61572958 .00002465 00000-0 73348-4 0 9992
L22 42889 96.9928 308.4710 0012218 174.5561 185.5819 15.35549474 32821

Live tracking and technical data element details for FLOCK 2K-16 (NORAD 42889). FLOCK 2K-16 can be tracked NOW for your location showing map with azimuth and elevation plus other details from your city location.

Track the satellite on the map from your city or location and see movement details for azimuth, elevation, latitude, longitude, range, height, and movement on the map or in text.







IsCatalogInMostPopularTable: catalog: 42889, numindb: 140
Update: records affected: 1



GetName: 42889 FLOCK 2K-16

Hit Count: updated at: Mon, 19 Nov 2018 10:59:12 GMT